JST083 YPDN-WADD

Flight info

Callsign JST083
Flight time N/A
Altitude 34000
Route JULIE Q320 IDOTO M766 GABIT
Aircraft A21N/M-SDE2E3FGHIRWXY/LB1

Departure

Time 2026-05-07 09:52
Airport Darwin International Airport / RAAF Darwin (YPDN)

Arrival

Time N/A
Airport Denpasar I Gusti Ngurah Rai International Airport (WADD)
Time Latitude Longitude Altitude Speed Heading
2026-05-07 09:37 -12.40828 130.87627 90 ft 0 kts 17°
2026-05-07 09:41 -12.40829 130.87627 90 ft 1 kts 17°
2026-05-07 09:41 -12.40839 130.87624 90 ft 2 kts 17°
2026-05-07 09:41 -12.40853 130.87619 90 ft 2 kts 17°
2026-05-07 09:41 -12.40867 130.87615 92 ft 2 kts 26°
2026-05-07 09:42 -12.40881 130.87607 92 ft 2 kts 43°
2026-05-07 09:42 -12.40891 130.87596 91 ft 2 kts 63°
2026-05-07 09:42 -12.40898 130.87582 91 ft 2 kts 91°
2026-05-07 09:42 -12.40896 130.87567 90 ft 2 kts 113°
2026-05-07 09:43 -12.40891 130.87555 91 ft 0 kts 128°
2026-05-07 09:43 -12.40892 130.87556 92 ft 1 kts 128°
2026-05-07 09:43 -12.40902 130.87568 91 ft 4 kts 134°
2026-05-07 09:44 -12.40927 130.87594 90 ft 7 kts 134°
2026-05-07 09:44 -12.40978 130.87609 92 ft 10 kts 193°
2026-05-07 09:44 -12.41055 130.87582 90 ft 14 kts 199°
2026-05-07 09:44 -12.41133 130.87555 90 ft 7 kts 199°
2026-05-07 09:45 -12.41152 130.87548 91 ft 0 kts 199°
2026-05-07 09:46 -12.41156 130.87546 91 ft 2 kts 199°
2026-05-07 09:46 -12.41186 130.87536 94 ft 6 kts 199°
2026-05-07 09:46 -12.41237 130.87518 90 ft 9 kts 199°
2026-05-07 09:46 -12.41307 130.87493 90 ft 12 kts 198°
2026-05-07 09:47 -12.41394 130.87462 92 ft 14 kts 199°
2026-05-07 09:47 -12.41482 130.87401 90 ft 17 kts 238°
2026-05-07 09:47 -12.41474 130.87272 90 ft 20 kts 289°
2026-05-07 09:47 -12.41425 130.87129 92 ft 22 kts 289°
2026-05-07 09:48 -12.41372 130.86971 94 ft 24 kts 288°
2026-05-07 09:48 -12.41315 130.86803 93 ft 26 kts 289°
2026-05-07 09:48 -12.41256 130.86630 93 ft 24 kts 289°
2026-05-07 09:48 -12.41187 130.86493 90 ft 21 kts 321°
2026-05-07 09:49 -12.41080 130.86484 90 ft 10 kts 18°
2026-05-07 09:49 -12.41053 130.86493 90 ft 0 kts 19°
2026-05-07 09:50 -12.41049 130.86494 90 ft 2 kts 19°
2026-05-07 09:51 -12.41025 130.86503 91 ft 6 kts 19°
2026-05-07 09:51 -12.40974 130.86531 93 ft 11 kts 46°
2026-05-07 09:51 -12.40966 130.86615 90 ft 8 kts 107°
2026-05-07 09:51 -12.41007 130.86741 91 ft 49 kts 109°
2026-05-07 09:52 -12.41209 130.87340 90 ft 125 kts 109°
2026-05-07 09:52 -12.41556 130.88380 125 ft 178 kts 108°
2026-05-07 09:52 -12.41956 130.89587 845 ft 182 kts 110°
2026-05-07 09:52 -12.42227 130.90411 1364 ft 187 kts 110°
2026-05-07 09:53 -12.42814 130.92190 2182 ft 206 kts 110°
2026-05-07 09:53 -12.43133 130.93140 2416 ft 219 kts 110°
2026-05-07 09:53 -12.43659 130.94697 2737 ft 242 kts 110°
2026-05-07 09:53 -12.44221 130.96362 3377 ft 250 kts 110°
2026-05-07 09:54 -12.44791 130.98053 4219 ft 253 kts 110°
2026-05-07 09:54 -12.45227 130.99796 5062 ft 257 kts 94°
2026-05-07 09:54 -12.44948 131.01624 5798 ft 266 kts 68°
2026-05-07 09:54 -12.43866 131.03175 6570 ft 273 kts 41°
2026-05-07 09:55 -12.42188 131.04087 7236 ft 283 kts 15°
2026-05-07 09:55 -12.40220 131.04310 7937 ft 288 kts
2026-05-07 09:55 -12.38198 131.04270 8675 ft 292 kts 358°
2026-05-07 09:55 -12.36155 131.04188 9402 ft 296 kts 357°
2026-05-07 09:56 -12.34095 131.04064 10124 ft 297 kts 349°
2026-05-07 09:56 -12.32170 131.03327 10783 ft 298 kts 329°
2026-05-07 09:56 -12.30362 131.02275 11440 ft 300 kts 328°
2026-05-07 09:56 -12.28730 131.00958 12099 ft 300 kts 309°
2026-05-07 09:57 -12.27641 130.99102 12403 ft 314 kts 287°
2026-05-07 09:57 -12.27229 130.96884 12578 ft 332 kts 276°
2026-05-07 09:57 -12.27009 130.94478 12798 ft 347 kts 274°
2026-05-07 09:57 -12.26815 130.92001 13362 ft 350 kts 274°
2026-05-07 09:58 -12.26602 130.89512 13963 ft 352 kts 275°
2026-05-07 09:58 -12.26364 130.87012 14531 ft 353 kts 276°
2026-05-07 09:58 -12.26111 130.84511 15088 ft 355 kts 276°
2026-05-07 09:58 -12.25849 130.81996 15633 ft 356 kts 276°
2026-05-07 09:59 -12.25584 130.79474 16163 ft 358 kts 276°
2026-05-07 09:59 -12.25316 130.76938 16683 ft 359 kts 277°
2026-05-07 09:59 -12.25046 130.74390 17201 ft 361 kts 277°
2026-05-07 09:59 -12.24776 130.71839 17699 ft 362 kts 277°
2026-05-07 10:00 -12.24506 130.69270 18196 ft 363 kts 277°
2026-05-07 10:00 -12.24239 130.66727 18600 ft 365 kts 277°
2026-05-07 10:00 -12.23963 130.64097 18989 ft 368 kts 277°
2026-05-07 10:00 -12.23692 130.61529 19372 ft 370 kts 277°
2026-05-07 10:01 -12.23417 130.58911 19776 ft 372 kts 277°
2026-05-07 10:01 -12.23128 130.56269 20145 ft 374 kts 279°
2026-05-07 10:01 -12.22601 130.53668 20515 ft 374 kts 287°
2026-05-07 10:01 -12.21748 130.51152 20885 ft 376 kts 294°
2026-05-07 10:02 -12.20586 130.48748 21250 ft 378 kts 299°
2026-05-07 10:02 -12.19333 130.46379 21620 ft 380 kts 298°
2026-05-07 10:02 -12.18086 130.43989 21982 ft 382 kts 298°
2026-05-07 10:02 -12.16852 130.41615 22341 ft 384 kts 298°
2026-05-07 10:03 -12.15595 130.39196 22693 ft 386 kts 298°
2026-05-07 10:03 -12.14333 130.36772 23033 ft 388 kts 298°
2026-05-07 10:03 -12.13063 130.34333 23382 ft 390 kts 298°
2026-05-07 10:03 -12.11782 130.31878 23680 ft 392 kts 298°
2026-05-07 10:04 -12.10497 130.29416 23968 ft 393 kts 298°
2026-05-07 10:04 -12.09206 130.26946 24238 ft 395 kts 298°
2026-05-07 10:04 -12.07911 130.24468 24514 ft 396 kts 298°
2026-05-07 10:04 -12.06609 130.21978 24777 ft 398 kts 298°
2026-05-07 10:05 -12.05302 130.19477 25038 ft 400 kts 298°
2026-05-07 10:05 -12.03991 130.16968 25306 ft 401 kts 298°
2026-05-07 10:05 -12.02675 130.14450 25551 ft 403 kts 298°
2026-05-07 10:05 -12.01351 130.11918 25790 ft 405 kts 297°
2026-05-07 10:06 -12.00024 130.09379 26034 ft 406 kts 297°
2026-05-07 10:06 -11.98690 130.06829 26272 ft 408 kts 297°
2026-05-07 10:06 -11.97352 130.04271 26505 ft 409 kts 297°
2026-05-07 10:06 -11.96008 130.01701 26721 ft 411 kts 297°
2026-05-07 10:07 -11.94659 129.99123 26951 ft 412 kts 297°
2026-05-07 10:07 -11.93306 129.96538 27170 ft 413 kts 297°
2026-05-07 10:07 -11.91950 129.93947 27388 ft 415 kts 297°
2026-05-07 10:07 -11.90585 129.91339 27599 ft 416 kts 297°
2026-05-07 10:08 -11.89217 129.88727 27799 ft 418 kts 297°
2026-05-07 10:08 -11.87846 129.86111 28006 ft 419 kts 297°
2026-05-07 10:08 -11.86486 129.83515 28198 ft 420 kts 297°
2026-05-07 10:08 -11.85086 129.80843 28381 ft 422 kts 297°
2026-05-07 10:09 -11.83717 129.78234 28560 ft 423 kts 296°
2026-05-07 10:09 -11.82325 129.75579 28745 ft 424 kts 296°
2026-05-07 10:09 -11.80985 129.72896 28920 ft 425 kts 293°
2026-05-07 10:09 -11.79842 129.70114 29102 ft 425 kts 289°
2026-05-07 10:10 -11.78912 129.67240 29271 ft 426 kts 285°
2026-05-07 10:10 -11.78203 129.64297 29432 ft 427 kts 281°
2026-05-07 10:10 -11.77721 129.61310 29602 ft 428 kts 276°
2026-05-07 10:10 -11.77349 129.58293 29774 ft 429 kts 278°
2026-05-07 10:11 -11.77015 129.55270 29944 ft 430 kts 275°
2026-05-07 10:11 -11.76759 129.52227 30102 ft 431 kts 275°
2026-05-07 10:11 -11.76514 129.49173 30256 ft 432 kts 274°
2026-05-07 10:11 -11.76270 129.46111 30407 ft 433 kts 274°
2026-05-07 10:12 -11.76022 129.43042 30565 ft 434 kts 274°
2026-05-07 10:12 -11.75776 129.40006 30720 ft 435 kts 275°
2026-05-07 10:12 -11.75523 129.36920 30891 ft 436 kts 275°
2026-05-07 10:12 -11.75270 129.33840 31050 ft 437 kts 275°
2026-05-07 10:13 -11.75015 129.30749 31215 ft 437 kts 274°
2026-05-07 10:13 -11.74759 129.27646 31375 ft 438 kts 274°
2026-05-07 10:13 -11.74503 129.24547 31539 ft 439 kts 274°
2026-05-07 10:13 -11.74246 129.21441 31705 ft 439 kts 274°
2026-05-07 10:14 -11.73989 129.18338 31873 ft 440 kts 274°
2026-05-07 10:14 -11.73731 129.15224 32039 ft 440 kts 274°
2026-05-07 10:14 -11.73476 129.12154 32210 ft 440 kts 274°
2026-05-07 10:14 -11.73217 129.09044 32378 ft 440 kts 274°
2026-05-07 10:15 -11.72958 129.05932 32623 ft 438 kts 274°
2026-05-07 10:15 -11.72700 129.02845 32864 ft 436 kts 274°
2026-05-07 10:15 -11.72443 128.99771 33114 ft 434 kts 274°
2026-05-07 10:15 -11.72187 128.96708 33362 ft 432 kts 274°
2026-05-07 10:16 -11.71932 128.93660 33611 ft 430 kts 274°
2026-05-07 10:16 -11.71678 128.90629 33865 ft 427 kts 274°
2026-05-07 10:16 -11.71423 128.87598 33947 ft 429 kts 274°
2026-05-07 10:17 -11.70912 128.81515 33944 ft 436 kts 274°
2026-05-07 10:17 -11.70387 128.75278 33944 ft 444 kts 274°
2026-05-07 10:18 -11.69852 128.68960 33945 ft 449 kts 274°
2026-05-07 10:18 -11.69312 128.62586 33952 ft 452 kts 274°
2026-05-07 10:19 -11.68770 128.56214 33944 ft 454 kts 274°
2026-05-07 10:19 -11.68222 128.49784 33944 ft 455 kts 274°
2026-05-07 10:20 -11.67671 128.43328 33948 ft 456 kts 274°
2026-05-07 10:20 -11.67118 128.36879 33944 ft 456 kts 274°
2026-05-07 10:21 -11.66565 128.30435 33944 ft 456 kts 274°
2026-05-07 10:21 -11.66013 128.24024 33953 ft 457 kts 274°
2026-05-07 10:22 -11.65455 128.17561 33950 ft 457 kts 274°
2026-05-07 10:22 -11.64896 128.11097 33949 ft 457 kts 274°
2026-05-07 10:23 -11.64335 128.04633 33944 ft 457 kts 274°
2026-05-07 10:23 -11.63773 127.98173 33953 ft 457 kts 274°
2026-05-07 10:24 -11.63210 127.91716 33948 ft 457 kts 274°
2026-05-07 10:24 -11.62644 127.85249 33955 ft 457 kts 274°
2026-05-07 10:25 -11.62081 127.78820 33951 ft 457 kts 274°
2026-05-07 10:25 -11.61511 127.72340 33952 ft 457 kts 274°
2026-05-07 10:26 -11.60941 127.65881 33950 ft 457 kts 274°
2026-05-07 10:26 -11.60370 127.59420 33955 ft 457 kts 274°
2026-05-07 10:27 -11.59802 127.52999 33948 ft 457 kts 274°
2026-05-07 10:27 -11.59228 127.46535 33952 ft 457 kts 274°
2026-05-07 10:28 -11.58652 127.40065 33947 ft 457 kts 274°
2026-05-07 10:28 -11.58075 127.33600 33950 ft 457 kts 274°
2026-05-07 10:29 -11.57497 127.27139 33953 ft 457 kts 274°
2026-05-07 10:29 -11.56921 127.20714 33953 ft 457 kts 274°
2026-05-07 10:30 -11.56049 127.11022 33955 ft 457 kts 274°
2026-05-07 10:30 -11.55465 127.04557 33958 ft 457 kts 274°
2026-05-07 10:31 -11.54880 126.98094 33951 ft 458 kts 274°
2026-05-07 10:31 -11.54293 126.91625 33957 ft 458 kts 274°
2026-05-07 10:32 -11.53705 126.85159 33961 ft 458 kts 274°
2026-05-07 10:32 -11.53115 126.78692 33963 ft 458 kts 274°
2026-05-07 10:33 -11.52527 126.72256 33955 ft 458 kts 274°
2026-05-07 10:33 -11.51868 126.65790 33952 ft 458 kts 276°
2026-05-07 10:34 -11.50711 126.59381 33962 ft 460 kts 281°
2026-05-07 10:34 -11.49347 126.53010 33952 ft 460 kts 280°
2026-05-07 10:35 -11.48005 126.46673 33956 ft 460 kts 280°
2026-05-07 10:35 -11.46651 126.40299 33958 ft 460 kts 281°
2026-05-07 10:36 -11.45294 126.33931 33960 ft 460 kts 281°
2026-05-07 10:36 -11.43935 126.27560 33953 ft 460 kts 281°
2026-05-07 10:37 -11.42578 126.21228 33956 ft 460 kts 280°
2026-05-07 10:37 -11.41443 126.15926 33954 ft 460 kts 280°
2026-05-07 10:38 -11.40076 126.09532 33958 ft 460 kts 280°
2026-05-07 10:38 -11.38711 126.03157 33959 ft 461 kts 280°
2026-05-07 10:39 -11.37342 125.96774 33957 ft 461 kts 280°
2026-05-07 10:39 -11.35971 125.90384 33958 ft 461 kts 280°